Oconto, WI

12:04 PM CST on February 27, 2017 (GMT -0600)
Oconto Municipal

Weather History for KOCQ - March, 2013

Change the Weather History Date:

Sunday, March 31, 2013

  Actual Average Record
Temperature  
Mean Temperature 36 °F -  
Max Temperature 43 °F 46 °F 56 °F (2015)
Min Temperature 28 °F 27 °F 27 °F (2015)
Degree Days  
Heating Degree Days 30    
Moisture  
Dew Point 28 °F    
Average Humidity 78    
Maximum Humidity 99    
Minimum Humidity 41    
Precipitation  
Precipitation 0.00 in - - ()
Sea Level Pressure  
Sea Level Pressure 29.70 in    
Wind  
Wind Speed 8 mph (West)    
Max Wind Speed 20 mph    
Max Gust Speed 29 mph    
Visibility 8 miles    
Events      
Averages and records for this station are not official NWS values.
T = Trace of Precipitation, MM = Missing Value Source: NWS Daily Summary

Daily Weather History Graph

Daily Weather History Graph

Search for Another Location

Airport or City:

Trip Planner

Search our weather history database for the weather conditions in past years. The results will help you decide how hot, cold, wet, or windy it might be!

Date:

Astronomy

Mar. 31, 2013 Rise Set
Actual Time 6:33 AM CDT 7:18 PM CDT
Civil Twilight 6:04 AM CDT 7:48 PM CDT
Nautical Twilight 5:29 AM CDT 8:23 PM CDT
Astronomical Twilight 4:52 AM CDT 8:59 PM CDT
Moon No Moon Rise 9:10 AM CDT (3/31)
Length of Visible Light 13h 43m
Length of Day
12h 44m
Waning Gibbous, 77% of the Moon is Illuminated
Mar 31
Waning Gibbous
Apr 2
Last Quarter
Apr 10
New
Apr 18
First Quarter
Apr 25
Full

Hourly Weather History & Observations

Time (CDT) Temp. Windchill Dew Point Humidity Pressure Visibility Wind Dir Wind Speed Gust Speed Precip Events Conditions
12:15 AM 38.1 °F 34.6 °F 37.4 °F 97% 29.75 in 5.0 mi WNW 4.6 mph - N/A   Overcast
12:35 AM 37.2 °F 32.6 °F 36.5 °F 97% 29.75 in 5.0 mi West 5.8 mph - N/A   Overcast
12:55 AM 36.9 °F 33.1 °F 36.1 °F 97% 29.74 in 5.0 mi West 4.6 mph - N/A   Mostly Cloudy
1:15 AM 35.8 °F 31.9 °F 35.4 °F 99% 29.74 in 4.0 mi WSW 4.6 mph - N/A   Scattered Clouds
1:35 AM 35.6 °F 30.7 °F 35.1 °F 98% 29.73 in 4.0 mi WSW 5.8 mph - N/A   Clear
1:55 AM 35.2 °F 31.2 °F 34.7 °F 98% 29.73 in 5.0 mi WSW 4.6 mph - N/A   Clear
2:15 AM 34.7 °F 30.6 °F 34.0 °F 97% 29.72 in 5.0 mi WSW 4.6 mph - N/A   Clear
2:35 AM 34.3 °F 30.2 °F 34.0 °F 99% 29.71 in 5.0 mi WSW 4.6 mph - N/A   Clear
2:55 AM 34.7 °F 29.6 °F 34.2 °F 98% 29.70 in 5.0 mi SW 5.8 mph - N/A   Clear
3:15 AM 34.3 °F 30.2 °F 33.8 °F 98% 29.70 in 5.0 mi SW 4.6 mph - N/A   Clear
3:35 AM 33.8 °F 29.6 °F 33.3 °F 98% 29.69 in 5.0 mi SW 4.6 mph - N/A   Clear
3:55 AM 33.3 °F 30.2 °F 32.9 °F 99% 29.68 in 4.0 mi SW 3.5 mph - N/A   Clear
4:15 AM 32.9 °F 27.5 °F 32.7 °F 99% 29.68 in 4.0 mi WSW 5.8 mph - N/A   Scattered Clouds
4:35 AM 33.8 °F 25.8 °F 33.3 °F 98% 29.68 in 5.0 mi West 10.4 mph - N/A   Mostly Cloudy
4:55 AM 34.2 °F 25.7 °F 33.4 °F 97% 29.68 in 5.0 mi West 11.5 mph - N/A   Overcast
5:15 AM 34.2 °F 25.2 °F 33.4 °F 97% 29.68 in 5.0 mi West 12.7 mph - N/A   Overcast
5:35 AM 33.8 °F 25.8 °F 33.3 °F 98% 29.68 in 4.0 mi West 10.4 mph - N/A   Overcast
5:55 AM 34.2 °F 26.2 °F 33.6 °F 98% 29.67 in 4.0 mi West 10.4 mph - N/A   Overcast
6:15 AM 34.2 °F 26.2 °F 33.4 °F 97% 29.66 in 5.0 mi West 10.4 mph - N/A   Overcast
6:35 AM 34.2 °F 27.5 °F 33.3 °F 97% 29.66 in 5.0 mi West 8.1 mph - N/A   Overcast
6:55 AM 34.2 °F 26.8 °F 33.3 °F 97% 29.66 in 4.0 mi West 9.2 mph - N/A   Overcast
7:15 AM 34.2 °F 27.5 °F 33.3 °F 97% 29.65 in 4.0 mi WSW 8.1 mph - N/A   Overcast
7:35 AM 34.3 °F 27.7 °F 33.3 °F 96% 29.65 in 4.0 mi WSW 8.1 mph - N/A   Overcast
7:55 AM 34.2 °F 27.5 °F 33.1 °F 96% 29.65 in 4.0 mi West 8.1 mph - N/A   Overcast
8:15 AM 34.3 °F 25.0 °F 33.1 °F 95% 29.65 in 4.0 mi West 13.8 mph 17.3 mph N/A   Overcast
8:35 AM 34.7 °F 24.3 °F 32.9 °F 93% 29.66 in 5.0 mi West 17.3 mph 23.0 mph N/A   Overcast
8:55 AM 34.7 °F 24.3 °F 32.9 °F 93% 29.65 in 5.0 mi West 17.3 mph 20.7 mph N/A   Overcast
9:15 AM 34.9 °F 25.7 °F 32.5 °F 91% 29.64 in 7.0 mi West 13.8 mph 17.3 mph N/A   Overcast
9:55 AM 36.9 °F 29.6 °F 32.9 °F 86% 29.64 in 10.0 mi West 10.4 mph - N/A   Mostly Cloudy
10:15 AM 38.1 °F 30.7 °F 32.5 °F 80% 29.64 in 10.0 mi WSW 11.5 mph - N/A   Scattered Clouds
10:35 AM 38.3 °F 30.9 °F 32.2 °F 79% 29.63 in 10.0 mi West 11.5 mph - N/A   Clear
10:55 AM 39.4 °F 33.2 °F 32.0 °F 75% 29.63 in 10.0 mi West 9.2 mph - N/A   Clear
11:15 AM 40.6 °F 34.3 °F 32.0 °F 71% 29.62 in 10.0 mi WSW 10.4 mph - N/A   Clear
11:35 AM 41.5 °F 33.8 °F 32.0 °F 69% 29.62 in 10.0 mi West 15.0 mph 18.4 mph N/A   Clear
11:55 AM 43.0 °F 36.8 °F 32.0 °F 65% 29.61 in 10.0 mi West 11.5 mph 18.4 mph N/A   Clear
12:15 PM 43.3 °F 37.2 °F 32.0 °F 64% 29.61 in 10.0 mi WSW 11.5 mph - N/A   Clear
12:35 PM 43.5 °F 37.5 °F 32.0 °F 64% 29.61 in 10.0 mi West 11.5 mph 18.4 mph N/A   Scattered Clouds
12:55 PM 42.3 °F 36.3 °F 31.8 °F 67% 29.61 in 10.0 mi West 10.4 mph 18.4 mph N/A   Overcast
1:15 PM 42.3 °F 34.8 °F 30.9 °F 64% 29.61 in 10.0 mi West 15.0 mph - N/A   Overcast
1:35 PM 40.6 °F 34.3 °F 31.5 °F 70% 29.62 in 10.0 mi WNW 10.4 mph 26.5 mph N/A   Overcast
1:55 PM 37.8 °F 30.7 °F 32.9 °F 83% 29.63 in 7.0 mi WNW 10.4 mph 21.9 mph N/A   Overcast
2:15 PM 39.4 °F 32.7 °F 32.5 °F 76% 29.63 in 10.0 mi WNW 10.4 mph - N/A   Overcast
2:35 PM 40.5 °F 31.2 °F 29.8 °F 66% 29.63 in 10.0 mi West 19.6 mph - N/A   Overcast
2:55 PM 41.0 °F 31.9 °F 29.1 °F 63% 29.63 in 10.0 mi West 19.6 mph 28.8 mph N/A   Mostly Cloudy
3:15 PM 40.1 °F 31.0 °F 29.1 °F 65% 29.64 in 10.0 mi West 18.4 mph 26.5 mph N/A   Mostly Cloudy
3:35 PM 37.6 °F 31.0 °F 29.3 °F 72% 29.65 in 10.0 mi NW 9.2 mph 25.3 mph N/A   Mostly Cloudy
3:55 PM 33.8 °F 25.8 °F 31.3 °F 90% 29.66 in 3.0 mi NW 10.4 mph 16.1 mph N/A   Overcast
4:15 PM 33.8 °F 26.4 °F 32.0 °F 93% 29.66 in 10.0 mi West 9.2 mph - N/A   Overcast
4:35 PM 35.2 °F 28.8 °F 30.7 °F 84% 29.66 in 10.0 mi WNW 8.1 mph - N/A   Overcast
4:55 PM 37.4 °F 30.8 °F 30.6 °F 76% 29.66 in 10.0 mi West 9.2 mph - N/A   Overcast
5:15 PM 36.7 °F 30.5 °F 29.5 °F 75% 29.66 in 10.0 mi West 8.1 mph - N/A   Overcast
5:35 PM 37.4 °F 32.8 °F 26.4 °F 65% 29.67 in 10.0 mi WNW 5.8 mph - N/A   Overcast
5:55 PM 38.3 °F 30.1 °F 20.1 °F 48% 29.69 in 10.0 mi NW 13.8 mph 23.0 mph N/A   Overcast
6:15 PM 38.3 °F 29.7 °F 17.8 °F 44% 29.70 in 10.0 mi NNW 15.0 mph 21.9 mph N/A   Scattered Clouds
6:35 PM 37.4 °F 28.2 °F 15.4 °F 41% 29.71 in 10.0 mi NNW 16.1 mph 26.5 mph N/A   Clear
6:55 PM 35.6 °F 26.2 °F 16.7 °F 46% 29.73 in 10.0 mi NW 15.0 mph 24.2 mph N/A   Clear
7:15 PM 34.3 °F 25.0 °F 16.5 °F 48% 29.75 in 10.0 mi NNW 13.8 mph 19.6 mph N/A   Clear
7:35 PM 33.8 °F 25.8 °F 12.6 °F 42% 29.76 in 10.0 mi NNW 10.4 mph 25.3 mph N/A   Clear
7:55 PM 32.9 °F 25.9 °F 12.7 °F 43% 29.78 in 10.0 mi North 8.1 mph - N/A   Clear
8:15 PM 32.0 °F 23.6 °F 14.5 °F 49% 29.79 in 10.0 mi NNW 10.4 mph 19.6 mph N/A   Clear
8:35 PM 31.8 °F 26.2 °F 14.9 °F 50% 29.81 in 10.0 mi NNW 5.8 mph - N/A   Clear
8:55 PM 30.9 °F 24.3 °F 16.0 °F 54% 29.82 in 10.0 mi NNW 6.9 mph - N/A   Clear
9:15 PM 30.2 °F 23.4 °F 16.2 °F 56% 29.83 in 10.0 mi NNW 6.9 mph - N/A   Clear
9:35 PM 30.2 °F 21.3 °F 15.4 °F 54% 29.84 in 10.0 mi NNW 10.4 mph 16.1 mph N/A   Clear
10:15 PM 29.3 °F 22.3 °F 15.4 °F 56% 29.85 in 10.0 mi NNW 6.9 mph - N/A   Clear
10:35 PM 28.9 °F 22.8 °F 15.8 °F 58% 29.85 in 10.0 mi NW 5.8 mph - N/A   Clear
11:15 PM 28.4 °F 21.2 °F 17.2 °F 63% 29.86 in 10.0 mi NW 6.9 mph - N/A   Scattered Clouds
11:35 PM 28.4 °F 22.2 °F 16.5 °F 61% 29.86 in 10.0 mi NNW 5.8 mph - N/A   Scattered Clouds
11:55 PM 28.0 °F 20.8 °F 16.5 °F 62% 29.87 in 10.0 mi NW 6.9 mph 10.4 mph N/A   Mostly Cloudy